Wind_Speed
5 5 2 3 4 5 3 3 5 5 8 3 6 7 17 11 19 17 25 31 35 38 31 33 35 37 37 33 27 28 27 24 20 22 23 23 23 20 16 18 17 17 15 13
6 3 2 4 4 4 4 4 7 7 5 3 3 9 12 3 12 29 27 31 38 35 32 33 35 36 34 32 18 32 28 28 26 20 20 21 20 19 16 18 17 18 18 16
4 4 6 2 1 1 3 5 4 6 5 3 4 8 5 4 6 14 25 32 34 39 38 35 35 36 31 26 31 20 28 30 27 21 20 20 21 21 20 20 21 20 19 18
5 4 2 3 5 3 3 6 4 3 4 2 3 4 5 6 4 4 3 21 27 32 33 35 35 33 36 32 29 16 22 29 26 23 22 22 21 20 18 19 20 19 20 19
7 2 3 4 6 5 9 2 1 2 2 2 4 3 7 7 8 9 7 5 14 20 30 33 37 34 31 27 25 28 23 23 23 22 22 23 22 18 17 17 20 21 23 22
7 4 4 7 3 6 2 1 5 4 3 3 3 3 5 5 7 8 8 6 4 11 19 24 28 31 28 25 24 24 24 23 21 23 24 24 23 19 17 16 16 20 22 24
5 4 3 3 1 3 6 6 4 5 5 4 2 3 7 8 9 6 11 9 4 7 17 19 21 24 22 22 23 24 25 25 26 27 25 25 24 22 20 18 17 19 19 22
1 6 4 1 4 5 3 6 5 2 1 5 3 1 5 5 15 13 3 6 14 14 13 13 13 16 5 20 24 26 18 17 31 30 30 27 24 23 22 21 20 20 20 21
3 4 3 5 3 3 3 4 4 6 3 2 2 3 4 5 7 11 9 17 18 18 14 14 16 21 9 16 22 25 29 29 16 33 30 28 25 24 23 22 21 22 20 18
5 2 3 4 2 10 7 4 4 4 1 3 5 4 5 2 3 7 6 14 18 23 21 11 19 17 11 15 17 16 19 25 26 27 27 26 24 24 24 20 19 20 16 14
4 4 6 3 6 2 4 3 6 5 3 4 2 5 5 7 3 5 7 11 19 28 22 30 16 4 5 6 1 6 10 15 20 24 26 28 24 23 23 15 17 15 13 15
0 5 3 2 4 3 2 3 4 5 3 1 3 5 2 5 2 8 9 2 14 23 26 24 17 5 7 10 8 6 6 11 13 16 21 27 27 27 19 17 15 11 12 11
4 2 3 5 6 3 4 1 5 5 3 3 4 5 5 6 5 2 4 4 5 14 21 22 16 6 7 12 11 8 15 17 18 14 11 17 23 25 24 19 16 15 16 8
5 3 5 6 4 3 3 2 3 5 3 3 5 6 5 7 7 6 7 3 1 3 10 18 10 3 8 8 9 12 16 9 15 14 12 14 19 25 27 22 17 20 17 21
4 3 2 2 2 0 2 3 4 5 5 6 6 6 4 6 7 7 8 6 4 6 7 5 3 3 6 9 10 15 17 17 11 12 10 11 25 24 25 25 21 20 20 19
3 2 2 2 2 4 4 6 7 3 3 4 3 1 3 6 13 17 12 9 6 6 4 4 5 7 10 12 12 13 15 16 15 4 13 22 25 23 21 23 26 21 22 21
2 6 4 5 3 2 4 5 3 3 2 3 4 2 2 6 11 12 12 11 11 9 6 6 8 11 13 14 13 13 14 13 12 10 10 13 18 26 26 23 23 24 25 24
4 4 3 3 3 3 5 5 3 5 2 3 5 4 4 2 5 7 7 6 4 5 7 8 9 11 13 15 17 17 17 16 15 14 12 15 15 17 22 26 25 24 24 26
2 5 3 4 4 3 5 2 2 1 3 1 1 2 1 3 9 8 4 2 6 11 13 15 16 17 17 21 22 24 24 24 23 18 16 16 17 18 19 21 26 29 27 27
5 6 4 2 3 7 2 4 10 3 3 3 2 4 7 10 2 4 14 12 18 15 14 16 18 19 21 21 25 27 29 31 31 30 24 18 18 19 20 23 25 25 28 31
3 3 3 1 2 4 2 9 5 2 4 2 6 9 12 4 12 25 31 32 31 31 28 26 26 27 27 26 27 30 29 31 30 31 33 26 20 19 21 22 23 22 26 29
2 2 1 2 1 4 4 3 2 4 3 10 16 19 21 27 30 34 35 35 35 36 35 34 35 35 35 32 32 34 34 31 27 26 26 28 22 17 19 21 22 21 22 24
1 4 3 5 4 3 1 0 7 7 9 18 24 25 26 30 34 35 37 36 38 39 38 35 34 33 33 33 32 36 36 31 28 28 27 24 23 20 18 19 19 20 19 19
1 2 2 2 2 6 8 12 9 16 19 25 25 28 31 35 36 38 38 39 40 39 39 37 39 39 36 33 33 32 32 28 27 28 28 25 23 24 21 20 18 18 17 19
3 1 2 3 7 7 9 9 14 17 22 26 29 32 35 35 38 40 40 41 42 40 38 37 36 33 31 29 29 30 30 30 32 31 29 25 22 24 24 22 20 20 18 18
5 5 4 5 9 7 13 19 23 25 30 34 36 37 37 37 40 39 40 40 38 37 34 33 33 33 32 31 31 31 30 29 31 34 32 27 25 23 25 23 21 23 19 16
Wind_Direction
18 44 241 266 208 216 245 213 252 258 267 189 245 267 276 209 212 207 207 209 216 220 218 220 223 228 232 232 237 238 237 230 227 224 223 227 232 238 234 228 232 228 231 228
14 274 268 236 213 207 214 250 278 294 254 123 312 270 266 210 221 217 210 210 218 223 220 220 224 224 227 234 223 231 232 234 232 232 230 238 244 244 247 245 236 232 233 234
162 241 309 353 358 155 206 197 247 232 338 14 355 307 318 321 273 258 233 233 228 227 224 217 223 228 220 214 226 245 224 232 232 228 228 232 239 243 247 245 238 239 234 236
252 288 260 328 291 154 300 209 244 276 56 278 48 275 308 337 15 31 203 227 236 235 228 227 222 226 230 233 219 231 221 225 231 232 230 226 234 242 255 253 244 247 240 240
249 241 295 315 239 165 230 359 74 33 114 62 1 66 279 353 356 346 350 209 232 241 234 229 225 226 229 235 231 228 227 223 232 237 238 235 234 238 252 262 251 246 246 248
241 272 228 219 238 185 72 64 46 59 72 33 302 109 308 339 298 299 325 338 293 234 227 225 226 222 227 228 231 233 228 227 231 241 242 242 242 238 242 247 248 249 249 249
318 247 267 229 250 29 75 52 351 6 10 229 352 68 243 296 317 305 319 323 84 172 209 215 214 208 221 225 228 231 228 229 235 243 247 247 249 245 246 246 250 253 254 254
107 346 16 20 208 150 86 129 145 220 261 277 302 17 271 319 330 337 354 102 112 133 160 165 184 192 202 246 237 239 207 261 230 234 244 248 250 252 252 254 254 258 258 267
160 277 313 32 6 100 163 55 165 103 8 44 269 309 323 349 337 353 62 100 110 122 128 138 150 173 226 224 224 231 227 254 258 241 239 247 252 256 257 258 262 263 269 275
211 320 8 298 14 33 102 158 44 14 170 289 305 269 228 201 283 319 36 102 131 136 137 166 163 189 216 220 230 238 244 256 240 248 237 245 258 261 263 257 262 267 277 261
132 118 293 26 27 324 358 24 61 111 121 173 226 270 213 185 245 326 340 146 159 165 165 171 182 167 244 326 275 236 261 274 269 262 252 254 255 268 272 272 264 270 273 245
83 132 114 125 296 289 122 129 105 112 261 44 141 279 318 166 334 325 315 328 192 181 184 194 199 202 258 321 308 304 279 255 259 268 268 266 264 261 273 274 267 263 254 241
183 22 53 10 354 349 68 124 116 112 98 201 145 263 68 38 346 252 256 318 239 221 208 206 204 247 302 326 337 314 301 252 260 281 303 291 287 269 268 275 274 261 235 275
110 106 148 194 212 160 171 204 94 113 113 191 231 278 344 348 283 217 216 211 291 265 242 232 236 291 3 13 16 11 350 268 256 247 299 283 276 281 266 270 269 264 253 240
83 135 159 208 219 238 234 222 184 182 186 168 242 213 304 317 274 228 151 129 97 63 65 98 120 29 28 41 39 33 20 12 257 257 257 286 280 275 273 263 265 262 257 246
17 187 135 289 193 196 254 237 248 245 121 278 271 197 328 23 101 96 93 103 74 43 36 27 2 1 2 1 9 21 30 24 30 251 256 271 276 269 272 264 266 265 262 254
124 137 119 240 15 5 306 254 199 148 98 193 201 182 47 29 53 65 69 70 61 45 25 356 356 354 2 359 357 357 6 11 8 6 352 316 297 274 263 257 255 259 259 257
133 100 93 194 42 236 257 332 167 113 75 104 98 96 96 148 105 79 77 58 22 348 343 337 325 325 333 330 329 329 334 339 340 338 334 332 330 298 279 263 256 256 257 255
98 120 106 152 185 305 307 322 27 357 252 107 65 12 67 2 213 236 192 243 272 276 281 283 293 293 293 303 305 307 310 313 317 324 322 329 322 322 312 288 266 255 254 256
65 75 116 131 163 211 232 305 352 140 270 13 357 333 337 347 261 247 225 278 298 287 280 286 291 292 293 292 292 295 295 297 302 308 313 310 314 314 309 311 296 270 254 251
6 8 113 147 196 285 274 299 313 161 236 349 341 313 314 275 272 295 298 296 297 297 292 287 285 283 282 283 287 287 290 291 293 290 293 298 291 299 306 304 309 294 261 249
150 109 213 100 94 268 330 359 41 212 208 311 316 311 301 302 302 302 302 299 297 295 290 286 281 278 276 276 278 278 280 283 282 280 283 285 281 283 292 299 299 302 288 262
338 175 193 169 217 233 230 249 285 232 297 321 315 311 308 304 301 301 299 301 300 295 290 287 282 282 279 272 266 272 276 282 286 280 278 278 271 274 282 291 293 295 292 269
333 151 136 41 253 231 253 300 292 265 274 301 296 298 300 294 295 294 295 295 301 298 293 294 287 286 284 279 262 266 275 280 280 276 273 271 268 263 270 280 285 287 283 266
214 94 159 274 281 287 279 283 309 298 292 298 304 299 299 298 297 295 295 296 296 297 294 294 287 280 282 281 273 266 270 275 275 271 271 270 267 263 264 273 282 280 281 267
191 190 162 233 256 233 268 307 311 305 306 310 306 305 301 299 297 297 293 293 295 294 297 296 289 283 281 279 282 275 273 275 277 266 266 268 267 263 262 268 279 281 282 271
Height
1504 1512 1516 1512 1512 1510 1512 1519 1520 1505 1495 1493 1497 1496 1481 1482 1485 1487 1488 1490 1491 1490 1496 1502 1505 1509 1511 1514 1522 1524 1528 1533 1536 1538 1540 1542 1542 1544 1546 1547 1550 1552 1554 1556
1511 1517 1507 1505 1506 1510 1515 1518 1515 1499 1494 1492 1494 1494 1481 1480 1478 1476 1479 1485 1485 1490 1494 1498 1500 1502 1509 1518 1519 1513 1520 1527 1531 1534 1537 1539 1540 1541 1542 1545 1548 1549 1552 1554
1515 1507 1503 1502 1505 1509 1511 1515 1507 1506 1497 1493 1496 1500 1485 1478 1477 1475 1477 1480 1483 1484 1486 1492 1495 1497 1507 1506 1519 1514 1518 1524 1528 1530 1532 1534 1536 1538 1540 1542 1543 1546 1549 1551
1509 1502 1502 1503 1506 1505 1511 1497 1498 1498 1508 1524 1502 1531 1496 1487 1479 1476 1474 1477 1480 1482 1484 1488 1491 1494 1497 1502 1510 1512 1516 1522 1527 1530 1529 1528 1531 1534 1537 1539 1541 1544 1546 1549
1510 1502 1503 1506 1501 1498 1506 1494 1497 1499 1509 1513 1511 1526 1505 1491 1489 1479 1477 1474 1475 1477 1479 1483 1486 1492 1498 1504 1509 1514 1518 1522 1527 1528 1529 1529 1528 1530 1533 1536 1538 1540 1544 1546
1504 1498 1498 1496 1490 1493 1492 1496 1505 1513 1520 1537 1520 1524 1519 1510 1504 1488 1478 1476 1474 1476 1478 1481 1486 1494 1499 1505 1510 1513 1516 1519 1523 1526 1528 1528 1528 1528 1529 1532 1534 1536 1538 1541
1504 1497 1492 1490 1494 1493 1498 1516 1545 1539 1550 1542 1527 1527 1520 1503 1496 1492 1486 1477 1472 1473 1476 1480 1485 1494 1501 1506 1510 1510 1512 1515 1518 1522 1524 1526 1527 1527 1527 1528 1530 1533 1534 1535
1522 1521 1493 1488 1490 1497 1504 1512 1544 1545 1556 1547 1524 1529 1516 1500 1496 1492 1486 1482 1478 1478 1482 1487 1491 1495 1501 1502 1503 1504 1508 1509 1506 1512 1519 1524 1525 1525 1525 1526 1527 1528 1530 1531
1522 1512 1491 1489 1488 1490 1504 1521 1514 1540 1545 1546 1534 1516 1506 1501 1497 1494 1488 1484 1482 1485 1488 1489 1492 1490 1486 1490 1493 1498 1502 1499 1513 1511 1515 1520 1524 1523 1523 1523 1524 1524 1525 1525
1502 1517 1496 1492 1490 1492 1497 1506 1525 1538 1542 1543 1539 1526 1523 1506 1502 1496 1490 1487 1487 1488 1489 1490 1492 1492 1491 1495 1500 1498 1498 1500 1510 1512 1513 1515 1519 1521 1520 1519 1520 1522 1522 1523
1499 1508 1508 1499 1508 1511 1511 1516 1526 1534 1544 1551 1554 1533 1505 1504 1500 1498 1494 1490 1489 1491 1489 1489 1493 1493 1492 1494 1496 1499 1499 1500 1502 1507 1509 1513 1513 1515 1517 1515 1518 1519 1519 1520
1497 1512 1523 1513 1507 1505 1504 1513 1524 1541 1538 1549 1550 1535 1501 1501 1501 1499 1497 1494 1492 1489 1491 1493 1494 1492 1492 1493 1493 1496 1497 1499 1501 1502 1504 1508 1510 1512 1512 1515 1517 1517 1517 1517
1495 1515 1530 1522 1517 1507 1511 1510 1519 1530 1539 1544 1548 1534 1505 1503 1501 1499 1499 1498 1496 1495 1493 1493 1494 1495 1495 1493 1494 1494 1494 1493 1495 1496 1499 1502 1504 1506 1509 1513 1513 1512 1514 1513
1492 1516 1518 1533 1519 1514 1516 1511 1513 1522 1541 1541 1538 1521 1508 1511 1505 1499 1499 1500 1499 1497 1495 1496 1498 1499 1498 1497 1496 1495 1492 1488 1490 1490 1494 1498 1499 1503 1507 1510 1512 1510 1511 1511
1496 1514 1512 1511 1511 1510 1510 1509 1511 1516 1519 1526 1519 1521 1512 1510 1505 1502 1500 1501 1501 1500 1499 1499 1501 1501 1500 1499 1497 1495 1492 1491 1489 1490 1491 1492 1496 1497 1500 1501 1504 1506 1505 1506
1501 1517 1513 1513 1509 1511 1513 1510 1511 1510 1512 1515 1514 1515 1511 1509 1505 1502 1503 1503 1504 1504 1504 1503 1502 1502 1499 1496 1495 1495 1494 1492 1492 1493 1493 1493 1492 1493 1495 1496 1497 1500 1501 1500
1504 1516 1524 1528 1520 1517 1524 1512 1509 1511 1512 1514 1519 1514 1512 1512 1509 1508 1507 1507 1507 1507 1506 1504 1502 1501 1498 1496 1494 1493 1493 1493 1493 1494 1494 1492 1490 1487 1487 1491 1490 1491 1494 1495
1509 1516 1524 1531 1524 1537 1516 1508 1506 1510 1512 1512 1512 1512 1513 1513 1512 1511 1510 1509 1508 1507 1506 1505 1502 1499 1496 1494 1492 1491 1491 1490 1491 1492 1490 1488 1486 1482 1480 1480 1484 1485 1485 1488
1502 1515 1531 1533 1538 1526 1515 1510 1511 1512 1514 1512 1513 1513 1513 1513 1512 1511 1510 1509 1509 1507 1505 1504 1502 1499 1496 1493 1491 1488 1487 1486 1486 1486 1485 1483 1481 1478 1475 1474 1476 1476 1480 1480
1506 1508 1518 1534 1527 1533 1516 1510 1508 1509 1522 1512 1512 1512 1512 1511 1514 1509 1507 1506 1506 1505 1502 1500 1498 1496 1494 1491 1488 1486 1483 1482 1479 1478 1477 1477 1477 1475 1473 1470 1466 1468 1472 1473
1518 1520 1524 1529 1527 1523 1512 1510 1508 1519 1522 1511 1511 1511 1510 1510 1507 1503 1502 1499 1498 1497 1496 1495 1492 1489 1486 1484 1482 1479 1477 1475 1475 1473 1471 1472 1472 1469 1467 1464 1462 1461 1461 1464
1519 1523 1527 1530 1525 1524 1509 1507 1513 1513 1509 1509 1508 1506 1504 1502 1498 1494 1492 1490 1488 1485 1484 1484 1480 1478 1477 1476 1474 1471 1469 1470 1468 1467 1466 1465 1464 1463 1461 1459 1458 1458 1456 1457
1520 1518 1521 1521 1521 1511 1510 1510 1510 1508 1507 1505 1503 1501 1498 1494 1490 1486 1482 1479 1476 1473 1472 1470 1468 1467 1466 1465 1464 1461 1461 1461 1459 1457 1458 1458 1457 1456 1454 1453 1452 1454 1453 1450
1512 1512 1515 1514 1512 1509 1508 1508 1507 1506 1504 1502 1499 1495 1492 1486 1482 1477 1474 1470 1466 1463 1460 1459 1457 1454 1453 1453 1453 1452 1452 1452 1451 1450 1449 1450 1449 1449 1448 1447 1448 1448 1447 1444
1513 1511 1514 1514 1508 1506 1505 1505 1504 1502 1500 1496 1492 1488 1483 1478 1472 1468 1464 1459 1456 1453 1450 1449 1446 1444 1443 1442 1442 1443 1443 1443 1441 1441 1441 1441 1441 1441 1441 1440 1441 1440 1441 1439
1509 1509 1513 1513 1504 1503 1502 1500 1499 1496 1491 1487 1482 1476 1472 1468 1462 1458 1454 1450 1447 1443 1441 1438 1436 1434 1434 1433 1431 1432 1433 1432 1430 1428 1431 1433 1433 1433 1433 1432 1431 1431 1431 1430